Time,TemperatureF,DewpointF,PressureIn,WindDirection,WindDirectionDegrees,WindSpeedMPH,WindSpeedGustMPH,Humidity,HourlyPrecipIn,Conditions,Clouds,dailyrainin,SoftwareType,DateUTC
2013-07-04 00:01:00,66.3,59.2,29.54,South,173,2.0,4.0,78,0.00,,,0.00,Wunderground v.1.15,2013-07-04 05:01:00,
2013-07-04 00:05:00,66.1,59.0,29.54,South,173,0.0,4.0,78,0.00,,,0.00,Wunderground v.1.15,2013-07-04 05:05:00,
2013-07-04 00:10:00,66.1,59.0,29.54,South,173,0.0,0.0,78,0.00,,,0.00,Wunderground v.1.15,2013-07-04 05:10:00,
2013-07-04 00:15:00,66.1,59.4,29.54,South,173,0.0,0.0,79,0.00,,,0.00,Wunderground v.1.15,2013-07-04 05:15:00,
2013-07-04 00:20:00,66.1,59.4,29.54,South,173,0.0,0.0,79,0.00,,,0.00,Wunderground v.1.15,2013-07-04 05:20:00,
2013-07-04 00:25:00,65.9,58.8,29.54,South,173,0.0,2.0,78,0.00,,,0.00,Wunderground v.1.15,2013-07-04 05:25:00,
2013-07-04 00:30:00,65.9,59.2,29.55,South,173,0.0,0.0,79,0.00,,,0.00,Wunderground v.1.15,2013-07-04 05:30:00,
2013-07-04 00:35:00,66.0,59.7,29.55,South,173,0.0,2.0,80,0.00,,,0.00,Wunderground v.1.15,2013-07-04 05:35:00,
2013-07-04 00:40:00,66.0,59.3,29.54,South,173,0.0,0.0,79,0.00,,,0.00,Wunderground v.1.15,2013-07-04 05:40:00,
2013-07-04 00:45:00,65.8,59.5,29.54,South,173,0.0,5.0,80,0.00,,,0.00,Wunderground v.1.15,2013-07-04 05:45:00,
2013-07-04 00:50:00,65.4,59.1,29.55,South,173,0.0,0.0,80,0.00,,,0.00,Wunderground v.1.15,2013-07-04 05:50:00,
2013-07-04 00:55:00,65.6,58.9,29.54,South,173,0.0,1.0,79,0.00,,,0.00,Wunderground v.1.15,2013-07-04 05:55:00,
2013-07-04 01:00:00,66.1,-99.9,29.54,South,173,0.0,0.0,255,0.00,,,0.00,Wunderground v.1.15,2013-07-04 06:00:00,
2013-07-04 01:05:00,65.9,59.2,29.55,South,173,0.0,1.0,79,0.00,,,0.00,Wunderground v.1.15,2013-07-04 06:05:00,
2013-07-04 01:10:00,66.3,58.5,29.54,South,173,0.0,0.0,76,0.00,,,0.00,Wunderground v.1.15,2013-07-04 06:10:00,
2013-07-04 01:15:00,66.3,-99.9,29.54,South,173,0.0,1.0,255,0.00,,,0.00,Wunderground v.1.15,2013-07-04 06:15:00,
2013-07-04 01:20:00,66.0,59.3,29.54,South,173,0.0,0.0,79,0.00,,,0.00,Wunderground v.1.15,2013-07-04 06:20:00,
2013-07-04 01:25:00,65.7,59.0,29.54,South,173,0.0,2.0,79,0.00,,,0.00,Wunderground v.1.15,2013-07-04 06:25:00,
2013-07-04 01:30:00,65.4,58.7,29.55,South,173,0.0,0.0,79,0.00,,,0.00,Wunderground v.1.15,2013-07-04 06:30:00,
2013-07-04 01:35:00,65.3,-99.9,29.54,South,173,0.0,0.0,255,0.00,,,0.00,Wunderground v.1.15,2013-07-04 06:35:00,
2013-07-04 01:40:00,64.9,58.9,29.54,South,173,0.0,0.0,81,0.00,,,0.00,Wunderground v.1.15,2013-07-04 06:40:00,
2013-07-04 01:45:00,64.7,58.7,29.55,South,173,0.0,0.0,81,0.00,,,0.00,Wunderground v.1.15,2013-07-04 06:45:00,
2013-07-04 01:50:00,64.5,58.9,29.54,South,173,0.0,0.0,82,0.00,,,0.00,Wunderground v.1.15,2013-07-04 06:50:00,
2013-07-04 01:55:00,64.4,58.8,29.55,South,173,0.0,0.0,82,0.00,,,0.00,Wunderground v.1.15,2013-07-04 06:55:00,
2013-07-04 02:00:00,64.3,58.7,29.54,South,173,0.0,0.0,82,0.00,,,0.00,Wunderground v.1.15,2013-07-04 07:00:00,
2013-07-04 02:05:00,64.1,58.8,29.54,South,173,0.0,0.0,83,0.00,,,0.00,Wunderground v.1.15,2013-07-04 07:05:00,
2013-07-04 02:10:00,64.2,58.9,29.54,South,173,0.0,1.0,83,0.00,,,0.00,Wunderground v.1.15,2013-07-04 07:10:00,
2013-07-04 02:15:00,64.5,58.9,29.53,South,173,0.0,1.0,82,0.00,,,0.00,Wunderground v.1.15,2013-07-04 07:15:00,
2013-07-04 02:20:00,64.5,58.9,29.53,South,173,0.0,0.0,82,0.00,,,0.00,Wunderground v.1.15,2013-07-04 07:20:00,
2013-07-04 02:25:00,64.6,59.0,29.53,South,173,0.0,5.0,82,0.00,,,0.00,Wunderground v.1.15,2013-07-04 07:25:00,
2013-07-04 02:30:00,64.5,58.9,29.53,South,173,0.0,1.0,82,0.00,,,0.00,Wunderground v.1.15,2013-07-04 07:30:00,
2013-07-04 02:35:00,64.6,59.3,29.53,South,173,0.0,4.0,83,0.00,,,0.00,Wunderground v.1.15,2013-07-04 07:35:00,
2013-07-04 02:40:00,64.7,59.1,29.53,South,173,0.0,0.0,82,0.00,,,0.00,Wunderground v.1.15,2013-07-04 07:40:00,
2013-07-04 02:45:00,64.8,59.2,29.53,South,173,0.0,2.0,82,0.00,,,0.00,Wunderground v.1.15,2013-07-04 07:45:00,
2013-07-04 02:50:00,64.9,59.3,29.53,South,173,0.0,0.0,82,0.00,,,0.00,Wunderground v.1.15,2013-07-04 07:50:00,
2013-07-04 02:55:00,64.9,59.3,29.53,South,173,0.0,5.0,82,0.00,,,0.00,Wunderground v.1.15,2013-07-04 07:55:00,
2013-07-04 03:00:00,65.0,59.4,29.53,South,173,0.0,1.0,82,0.00,,,0.00,Wunderground v.1.15,2013-07-04 08:00:00,
2013-07-04 03:05:00,65.2,59.6,29.53,South,173,0.0,5.0,82,0.00,,,0.00,Wunderground v.1.15,2013-07-04 08:05:00,
2013-07-04 03:10:00,65.2,59.6,29.53,South,173,4.0,5.0,82,0.00,,,0.00,Wunderground v.1.15,2013-07-04 08:10:00,
2013-07-04 03:15:00,65.2,59.6,29.53,South,173,0.0,5.0,82,0.00,,,0.00,Wunderground v.1.15,2013-07-04 08:15:00,
2013-07-04 03:20:00,65.2,59.6,29.54,South,173,0.0,1.0,82,0.00,,,0.00,Wunderground v.1.15,2013-07-04 08:20:00,
2013-07-04 03:25:00,65.0,59.4,29.54,South,173,0.0,1.0,82,0.00,,,0.00,Wunderground v.1.15,2013-07-04 08:25:00,
2013-07-04 03:30:00,64.7,59.4,29.54,South,173,0.0,0.0,83,0.00,,,0.00,Wunderground v.1.15,2013-07-04 08:30:00,
2013-07-04 03:35:00,64.3,59.0,29.54,South,173,0.0,1.0,83,0.00,,,0.00,Wunderground v.1.15,2013-07-04 08:35:00,
2013-07-04 03:40:00,64.1,59.2,29.54,South,173,0.0,0.0,84,0.00,,,0.00,Wunderground v.1.15,2013-07-04 08:40:00,
2013-07-04 03:45:00,64.0,59.4,29.54,South,173,0.0,1.0,85,0.00,,,0.00,Wunderground v.1.15,2013-07-04 08:45:00,
2013-07-04 03:50:00,64.1,59.5,29.54,South,173,0.0,2.0,85,0.00,,,0.00,Wunderground v.1.15,2013-07-04 08:50:00,
2013-07-04 03:55:00,64.2,59.6,29.54,South,173,0.0,4.0,85,0.00,,,0.00,Wunderground v.1.15,2013-07-04 08:55:00,
2013-07-04 04:00:00,64.4,59.8,29.54,South,173,0.0,0.0,85,0.00,,,0.00,Wunderground v.1.15,2013-07-04 09:00:00,
2013-07-04 04:05:00,64.5,59.9,29.54,South,173,0.0,1.0,85,0.00,,,0.00,Wunderground v.1.15,2013-07-04 09:05:00,
2013-07-04 04:10:00,64.5,59.9,29.54,South,173,0.0,0.0,85,0.00,,,0.00,Wunderground v.1.15,2013-07-04 09:10:00,
2013-07-04 04:15:00,64.4,59.8,29.54,South,173,0.0,6.0,85,0.00,,,0.00,Wunderground v.1.15,2013-07-04 09:15:00,
2013-07-04 04:20:00,64.4,59.8,29.54,South,173,0.0,1.0,85,0.00,,,0.00,Wunderground v.1.15,2013-07-04 09:20:00,
2013-07-04 04:25:00,64.5,59.9,29.54,South,173,0.0,2.0,85,0.00,,,0.00,Wunderground v.1.15,2013-07-04 09:25:00,
2013-07-04 04:30:00,64.4,60.1,29.54,South,173,1.0,1.0,86,0.00,,,0.00,Wunderground v.1.15,2013-07-04 09:30:00,
2013-07-04 04:35:00,64.4,60.1,29.54,South,175,2.0,5.0,86,0.00,,,0.00,Wunderground v.1.15,2013-07-04 09:35:00,
2013-07-04 04:40:00,64.3,60.0,29.54,South,175,0.0,1.0,86,0.00,,,0.00,Wunderground v.1.15,2013-07-04 09:40:00,
2013-07-04 04:45:00,64.2,59.9,29.54,South,175,0.0,4.0,86,0.00,,,0.00,Wunderground v.1.15,2013-07-04 09:45:00,
2013-07-04 04:50:00,64.1,60.2,29.54,South,174,0.0,0.0,87,0.00,,,0.00,Wunderground v.1.15,2013-07-04 09:50:00,
2013-07-04 04:55:00,64.0,60.1,29.54,South,174,0.0,1.0,87,0.00,,,0.00,Wunderground v.1.15,2013-07-04 09:55:00,
2013-07-04 05:00:00,63.9,60.0,29.54,South,174,0.0,0.0,87,0.00,,,0.00,Wunderground v.1.15,2013-07-04 10:00:00,
2013-07-04 05:05:00,63.7,59.8,29.55,South,174,0.0,5.0,87,0.00,,,0.00,Wunderground v.1.15,2013-07-04 10:05:00,
2013-07-04 05:10:00,63.4,59.5,29.55,South,174,0.0,0.0,87,0.00,,,0.00,Wunderground v.1.15,2013-07-04 10:10:00,
2013-07-04 05:15:00,63.2,59.3,29.55,South,174,0.0,0.0,87,0.00,,,0.00,Wunderground v.1.15,2013-07-04 10:15:00,
2013-07-04 05:20:00,63.0,59.4,29.55,South,174,0.0,0.0,88,0.00,,,0.00,Wunderground v.1.15,2013-07-04 10:20:00,
2013-07-04 05:25:00,62.9,59.3,29.55,South,174,1.0,1.0,88,0.00,,,0.00,Wunderground v.1.15,2013-07-04 10:25:00,
2013-07-04 05:30:00,62.9,59.6,29.56,South,174,0.0,0.0,89,0.00,,,0.00,Wunderground v.1.15,2013-07-04 10:30:00,
2013-07-04 05:35:00,62.8,59.5,29.55,South,174,0.0,4.0,89,0.00,,,0.00,Wunderground v.1.15,2013-07-04 10:35:00,
2013-07-04 05:40:00,62.8,59.8,29.56,South,174,0.0,0.0,90,0.00,,,0.00,Wunderground v.1.15,2013-07-04 10:40:00,
2013-07-04 05:45:00,62.9,59.6,29.55,South,174,0.0,6.0,89,0.00,,,0.00,Wunderground v.1.15,2013-07-04 10:45:00,
2013-07-04 05:50:00,63.0,59.7,29.55,South,175,6.0,6.0,89,0.00,,,0.00,Wunderground v.1.15,2013-07-04 10:50:00,
2013-07-04 05:55:00,63.0,59.7,29.55,South,175,6.0,6.0,89,0.00,,,0.00,Wunderground v.1.15,2013-07-04 10:55:00,
2013-07-04 06:00:00,63.0,59.7,29.55,South,176,0.0,1.0,89,0.00,,,0.00,Wunderground v.1.15,2013-07-04 11:00:00,
2013-07-04 06:05:00,63.0,59.7,29.55,South,177,4.0,5.0,89,0.00,,,0.00,Wunderground v.1.15,2013-07-04 11:05:00,
2013-07-04 06:09:00,63.0,59.7,29.55,South,177,0.0,5.0,89,0.00,,,0.00,Wunderground v.1.15,2013-07-04 11:09:00,
2013-07-04 06:14:00,63.0,59.7,29.55,South,177,0.0,2.0,89,0.00,,,0.00,Wunderground v.1.15,2013-07-04 11:14:00,
2013-07-04 06:19:00,63.1,59.8,29.55,South,177,0.0,2.0,89,0.00,,,0.00,Wunderground v.1.15,2013-07-04 11:19:00,
2013-07-04 06:24:00,63.1,59.8,29.56,South,178,0.0,6.0,89,0.00,,,0.00,Wunderground v.1.15,2013-07-04 11:24:00,
2013-07-04 06:29:00,63.3,60.0,29.56,South,178,0.0,6.0,89,0.00,,,0.00,Wunderground v.1.15,2013-07-04 11:29:00,
2013-07-04 06:34:00,63.4,59.8,29.56,South,180,0.0,6.0,88,0.00,,,0.00,Wunderground v.1.15,2013-07-04 11:34:00,
2013-07-04 06:39:00,63.6,60.0,29.56,South,180,2.0,6.0,88,0.00,,,0.00,Wunderground v.1.15,2013-07-04 11:39:00,
2013-07-04 06:44:00,63.7,60.1,29.56,South,180,0.0,3.0,88,0.00,,,0.00,Wunderground v.1.15,2013-07-04 11:44:00,
2013-07-04 06:49:00,63.9,60.0,29.56,South,180,0.0,3.0,87,0.00,,,0.00,Wunderground v.1.15,2013-07-04 11:49:00,
2013-07-04 06:54:00,63.9,60.0,29.56,South,180,0.0,0.0,87,0.00,,,0.00,Wunderground v.1.15,2013-07-04 11:54:00,
2013-07-04 06:59:00,64.2,60.2,29.57,South,180,0.0,0.0,87,0.00,,,0.00,Wunderground v.1.15,2013-07-04 11:59:00,
2013-07-04 07:04:00,64.3,60.3,29.57,South,180,1.0,3.0,87,0.00,,,0.00,Wunderground v.1.15,2013-07-04 12:04:00,
2013-07-04 07:09:00,64.3,60.3,29.57,South,180,0.0,3.0,87,0.00,,,0.00,Wunderground v.1.15,2013-07-04 12:09:00,
2013-07-04 07:14:00,64.6,60.3,29.57,South,180,0.0,3.0,86,0.00,,,0.00,Wunderground v.1.15,2013-07-04 12:14:00,
2013-07-04 07:19:00,64.9,60.6,29.57,South,180,0.0,3.0,86,0.00,,,0.00,Wunderground v.1.15,2013-07-04 12:19:00,
2013-07-04 07:24:00,65.2,60.6,29.57,South,180,0.0,1.0,85,0.00,,,0.00,Wunderground v.1.15,2013-07-04 12:24:00,
2013-07-04 07:29:00,65.5,60.9,29.57,South,180,0.0,1.0,85,0.00,,,0.00,Wunderground v.1.15,2013-07-04 12:29:00,
2013-07-04 07:34:00,65.8,60.8,29.58,South,180,0.0,0.0,84,0.00,,,0.00,Wunderground v.1.15,2013-07-04 12:34:00,
2013-07-04 07:39:00,66.2,60.9,29.57,South,180,0.0,0.0,83,0.00,,,0.00,Wunderground v.1.15,2013-07-04 12:39:00,
2013-07-04 07:44:00,66.5,60.8,29.58,South,180,0.0,2.0,82,0.00,,,0.00,Wunderground v.1.15,2013-07-04 12:44:00,
2013-07-04 07:49:00,67.2,61.2,29.58,South,180,0.0,2.0,81,0.00,,,0.00,Wunderground v.1.15,2013-07-04 12:49:00,
2013-07-04 07:54:00,67.6,61.6,29.58,South,180,0.0,3.0,81,0.00,,,0.00,Wunderground v.1.15,2013-07-04 12:54:00,
2013-07-04 07:59:00,67.4,61.0,29.58,South,180,0.0,3.0,80,0.00,,,0.00,Wunderground v.1.15,2013-07-04 12:59:00,
2013-07-04 08:04:00,67.7,61.3,29.59,South,180,0.0,2.0,80,0.00,,,0.00,Wunderground v.1.15,2013-07-04 13:04:00,
2013-07-04 08:09:00,67.9,60.8,29.58,South,180,0.0,3.0,78,0.00,,,0.00,Wunderground v.1.15,2013-07-04 13:09:00,
2013-07-04 08:14:00,68.2,61.1,29.58,South,180,0.0,1.0,78,0.00,,,0.00,Wunderground v.1.15,2013-07-04 13:14:00,
2013-07-04 08:19:00,68.6,61.5,29.59,South,180,0.0,1.0,78,0.00,,,0.00,Wunderground v.1.15,2013-07-04 13:19:00,
2013-07-04 08:24:00,68.8,61.7,29.58,South,180,0.0,0.0,78,0.00,,,0.00,Wunderground v.1.15,2013-07-04 13:24:00,
2013-07-04 08:29:00,69.1,61.6,29.58,South,180,0.0,0.0,77,0.00,,,0.00,Wunderground v.1.15,2013-07-04 13:29:00,
2013-07-04 08:34:00,69.5,62.0,29.58,South,180,0.0,0.0,77,0.00,,,0.00,Wunderground v.1.15,2013-07-04 13:34:00,
2013-07-04 08:39:00,69.9,62.0,29.58,South,180,0.0,2.0,76,0.00,,,0.00,Wunderground v.1.15,2013-07-04 13:39:00,
2013-07-04 08:44:00,71.2,62.9,29.58,South,180,0.0,0.0,75,0.00,,,0.00,Wunderground v.1.15,2013-07-04 13:44:00,
2013-07-04 08:49:00,71.1,62.4,29.58,South,180,0.0,3.0,74,0.00,,,0.00,Wunderground v.1.15,2013-07-04 13:49:00,
2013-07-04 08:54:00,-999.9,-99.9,29.58,South,180,0.0,2.0,72,0.00,,,0.00,Wunderground v.1.15,2013-07-04 13:54:00,
2013-07-04 08:59:00,72.0,61.7,29.58,South,180,1.0,2.0,70,0.00,,,0.00,Wunderground v.1.15,2013-07-04 13:59:00,
2013-07-04 09:04:00,72.5,61.3,29.58,South,180,0.0,3.0,68,0.00,,,0.00,Wunderground v.1.15,2013-07-04 14:04:00,
2013-07-04 09:09:00,72.6,61.4,29.57,South,180,0.0,3.0,68,0.00,,,0.00,Wunderground v.1.15,2013-07-04 14:09:00,
2013-07-04 09:14:00,73.0,61.8,29.57,South,180,0.0,0.0,68,0.00,,,0.00,Wunderground v.1.15,2013-07-04 14:14:00,
2013-07-04 09:19:00,-999.9,-99.9,29.57,South,180,0.0,0.0,67,0.00,,,0.00,Wunderground v.1.15,2013-07-04 14:19:00,
2013-07-04 09:24:00,73.9,61.8,29.57,South,180,0.0,0.0,66,0.00,,,0.00,Wunderground v.1.15,2013-07-04 14:24:00,
2013-07-04 09:29:00,74.4,61.4,29.57,South,180,0.0,3.0,64,0.00,,,0.00,Wunderground v.1.15,2013-07-04 14:29:00,
2013-07-04 09:34:00,75.2,62.2,29.57,South,180,0.0,3.0,64,0.00,,,0.00,Wunderground v.1.15,2013-07-04 14:34:00,
2013-07-04 09:39:00,75.9,-99.9,29.57,South,180,0.0,3.0,255,0.00,,,0.00,Wunderground v.1.15,2013-07-04 14:39:00,
2013-07-04 09:44:00,76.7,62.7,29.57,South,180,0.0,0.0,62,0.00,,,0.00,Wunderground v.1.15,2013-07-04 14:44:00,
2013-07-04 09:49:00,77.3,-99.9,29.57,South,180,0.0,2.0,255,0.00,,,0.00,Wunderground v.1.15,2013-07-04 14:49:00,
2013-07-04 09:54:00,77.7,63.2,29.57,South,180,0.0,0.0,61,0.00,,,0.00,Wunderground v.1.15,2013-07-04 14:54:00,
2013-07-04 09:59:00,78.3,63.7,29.57,South,180,0.0,2.0,61,0.00,,,0.00,Wunderground v.1.15,2013-07-04 14:59:00,
2013-07-04 10:04:00,78.4,63.4,29.57,South,180,0.0,0.0,60,0.00,,,0.00,Wunderground v.1.15,2013-07-04 15:04:00,
2013-07-04 10:09:00,78.8,63.7,29.57,South,180,0.0,0.0,60,0.00,,,0.00,Wunderground v.1.15,2013-07-04 15:09:00,
2013-07-04 10:14:00,79.3,63.7,29.57,South,180,0.0,0.0,59,0.00,,,0.00,Wunderground v.1.15,2013-07-04 15:14:00,
2013-07-04 10:19:00,79.5,61.9,29.57,South,180,0.0,3.0,55,0.00,,,0.00,Wunderground v.1.15,2013-07-04 15:19:00,
2013-07-04 10:24:00,79.7,-99.9,29.57,South,180,2.0,3.0,255,0.00,,,0.00,Wunderground v.1.15,2013-07-04 15:24:00,
2013-07-04 10:29:00,79.5,61.4,29.57,South,180,0.0,3.0,54,0.00,,,0.00,Wunderground v.1.15,2013-07-04 15:29:00,
2013-07-04 10:34:00,79.4,60.8,29.57,South,180,0.0,1.0,53,0.00,,,0.00,Wunderground v.1.15,2013-07-04 15:34:00,
2013-07-04 10:39:00,79.9,61.8,29.57,South,180,1.0,3.0,54,0.00,,,0.00,Wunderground v.1.15,2013-07-04 15:39:00,
2013-07-04 10:44:00,79.7,62.1,29.57,South,180,0.0,1.0,55,0.00,,,0.00,Wunderground v.1.15,2013-07-04 15:44:00,
2013-07-04 10:49:00,80.3,63.2,29.57,South,180,0.0,1.0,56,0.00,,,0.00,Wunderground v.1.15,2013-07-04 15:49:00,
2013-07-04 10:54:00,-999.9,-99.9,29.57,SSW,197,0.0,5.0,54,0.00,,,0.00,Wunderground v.1.15,2013-07-04 15:54:00,
2013-07-04 10:59:00,81.0,61.7,29.57,SSW,197,0.0,5.0,52,0.00,,,0.00,Wunderground v.1.15,2013-07-04 15:59:00,
2013-07-04 11:04:00,81.1,61.3,29.57,SSW,197,0.0,1.0,51,0.00,,,0.00,Wunderground v.1.15,2013-07-04 16:04:00,
2013-07-04 11:09:00,81.2,61.4,29.56,SSW,197,0.0,3.0,51,0.00,,,0.00,Wunderground v.1.15,2013-07-04 16:09:00,
2013-07-04 11:14:00,81.0,63.8,29.56,SSW,196,2.0,5.0,56,0.00,,,0.00,Wunderground v.1.15,2013-07-04 16:14:00,
2013-07-04 11:19:00,81.0,61.7,29.56,SSW,196,0.0,5.0,52,0.00,,,0.00,Wunderground v.1.15,2013-07-04 16:19:00,
2013-07-04 11:24:00,81.3,60.9,29.56,SSW,196,0.0,0.0,50,0.00,,,0.00,Wunderground v.1.15,2013-07-04 16:24:00,
2013-07-04 11:29:00,81.7,60.7,29.56,SSW,196,0.0,2.0,49,0.00,,,0.00,Wunderground v.1.15,2013-07-04 16:29:00,
2013-07-04 11:34:00,81.8,60.2,29.56,SSW,196,0.0,4.0,48,0.00,,,0.00,Wunderground v.1.15,2013-07-04 16:34:00,
2013-07-04 11:38:00,81.5,61.6,29.56,SSW,195,0.0,7.0,51,0.00,,,0.00,Wunderground v.1.15,2013-07-04 16:38:00,
2013-07-04 11:43:00,81.0,60.0,29.56,SSW,195,0.0,4.0,49,0.00,,,0.00,Wunderground v.1.15,2013-07-04 16:43:00,
2013-07-04 11:48:00,81.5,61.6,29.56,SSW,195,0.0,4.0,51,0.00,,,0.00,Wunderground v.1.15,2013-07-04 16:48:00,
2013-07-04 11:53:00,81.7,63.4,29.56,SSW,195,0.0,0.0,54,0.00,,,0.00,Wunderground v.1.15,2013-07-04 16:53:00,
2013-07-04 11:58:00,82.2,63.4,29.56,SSW,200,0.0,4.0,53,0.00,,,0.00,Wunderground v.1.15,2013-07-04 16:58:00,
2013-07-04 12:03:00,82.4,61.3,29.56,SSW,200,1.0,1.0,49,0.00,,,0.00,Wunderground v.1.15,2013-07-04 17:03:00,
2013-07-04 12:08:00,82.1,62.2,29.56,SSW,200,0.0,4.0,51,0.00,,,0.00,Wunderground v.1.15,2013-07-04 17:08:00,
2013-07-04 12:13:00,82.5,65.2,29.56,SSW,200,0.0,4.0,56,0.00,,,0.00,Wunderground v.1.15,2013-07-04 17:13:00,
2013-07-04 12:18:00,82.4,62.5,29.56,South,190,0.0,7.0,51,0.00,,,0.00,Wunderground v.1.15,2013-07-04 17:18:00,
2013-07-04 12:23:00,82.3,63.5,29.56,South,190,0.0,1.0,53,0.00,,,0.00,Wunderground v.1.15,2013-07-04 17:23:00,
2013-07-04 12:28:00,82.1,61.0,29.56,South,190,0.0,5.0,49,0.00,,,0.00,Wunderground v.1.15,2013-07-04 17:28:00,
2013-07-04 12:33:00,82.3,62.4,29.56,South,190,0.0,1.0,51,0.00,,,0.00,Wunderground v.1.15,2013-07-04 17:33:00,
2013-07-04 12:38:00,82.5,63.6,29.56,South,190,0.0,3.0,53,0.00,,,0.00,Wunderground v.1.15,2013-07-04 17:38:00,
2013-07-04 12:43:00,82.6,64.8,29.56,South,184,0.0,7.0,55,0.00,,,0.00,Wunderground v.1.15,2013-07-04 17:43:00,
2013-07-04 12:48:00,82.9,62.4,29.56,South,182,2.0,7.0,50,0.00,,,0.00,Wunderground v.1.15,2013-07-04 17:48:00,
2013-07-04 12:53:00,82.9,62.9,29.56,South,182,0.0,5.0,51,0.00,,,0.00,Wunderground v.1.15,2013-07-04 17:53:00,
2013-07-04 12:58:00,83.0,60.7,29.56,South,182,2.0,7.0,47,0.00,,,0.00,Wunderground v.1.15,2013-07-04 17:58:00,
2013-07-04 13:03:00,83.3,61.0,29.55,South,185,0.0,6.0,47,0.00,,,0.00,Wunderground v.1.15,2013-07-04 18:03:00,
2013-07-04 13:08:00,83.1,64.2,29.55,South,182,0.0,8.0,53,0.00,,,0.00,Wunderground v.1.15,2013-07-04 18:08:00,
2013-07-04 13:13:00,83.1,63.1,29.55,South,182,1.0,2.0,51,0.00,,,0.00,Wunderground v.1.15,2013-07-04 18:13:00,
2013-07-04 13:18:00,83.2,61.5,29.55,South,173,4.0,10.0,48,0.00,,,0.00,Wunderground v.1.15,2013-07-04 18:18:00,
2013-07-04 13:23:00,82.8,61.7,29.55,South,171,0.0,7.0,49,0.00,,,0.00,Wunderground v.1.15,2013-07-04 18:23:00,
2013-07-04 13:28:00,82.5,63.1,29.55,South,171,0.0,7.0,52,0.00,,,0.00,Wunderground v.1.15,2013-07-04 18:28:00,
2013-07-04 13:33:00,82.5,60.8,29.55,South,184,3.0,10.0,48,0.00,,,0.00,Wunderground v.1.15,2013-07-04 18:33:00,
2013-07-04 13:38:00,82.6,60.3,29.55,SSW,192,0.0,11.0,47,0.00,,,0.00,Wunderground v.1.15,2013-07-04 18:38:00,
2013-07-04 13:43:00,83.1,61.4,29.55,South,190,0.0,7.0,48,0.00,,,0.00,Wunderground v.1.15,2013-07-04 18:43:00,
2013-07-04 13:48:00,83.3,62.1,29.55,South,188,0.0,7.0,49,0.00,,,0.00,Wunderground v.1.15,2013-07-04 18:48:00,
2013-07-04 13:53:00,84.0,62.8,29.55,South,187,1.0,6.0,49,0.00,,,0.00,Wunderground v.1.15,2013-07-04 18:53:00,
2013-07-04 13:58:00,83.6,60.6,29.54,South,182,0.0,10.0,46,0.00,,,0.00,Wunderground v.1.15,2013-07-04 18:58:00,
2013-07-04 14:03:00,-999.9,-99.9,29.54,South,183,0.0,7.0,255,0.00,,,0.00,Wunderground v.1.15,2013-07-04 19:03:00,
2013-07-04 14:08:00,-999.9,-99.9,29.54,SSE,165,5.0,14.0,44,0.00,,,0.00,Wunderground v.1.15,2013-07-04 19:08:00,
2013-07-04 14:13:00,83.7,60.7,29.54,SSE,166,0.0,8.0,46,0.00,,,0.00,Wunderground v.1.15,2013-07-04 19:13:00,
2013-07-04 14:18:00,83.7,60.1,29.53,SSE,167,0.0,8.0,45,0.00,,,0.00,Wunderground v.1.15,2013-07-04 19:18:00,
2013-07-04 14:23:00,83.8,59.6,29.53,SSE,167,0.0,2.0,44,0.00,,,0.00,Wunderground v.1.15,2013-07-04 19:23:00,
2013-07-04 14:28:00,84.7,60.4,29.53,SSE,167,6.0,7.0,44,0.00,,,0.00,Wunderground v.1.15,2013-07-04 19:28:00,
2013-07-04 14:33:00,84.2,60.6,29.53,South,182,4.0,6.0,45,0.00,,,0.00,Wunderground v.1.15,2013-07-04 19:33:00,
2013-07-04 14:38:00,84.6,59.6,29.53,South,182,0.0,6.0,43,0.00,,,0.00,Wunderground v.1.15,2013-07-04 19:38:00,
2013-07-04 14:43:00,84.5,59.5,29.53,South,182,0.0,2.0,43,0.00,,,0.00,Wunderground v.1.15,2013-07-04 19:43:00,
2013-07-04 14:48:00,84.4,58.1,29.53,South,177,0.0,9.0,41,0.00,,,0.00,Wunderground v.1.15,2013-07-04 19:48:00,
2013-07-04 14:53:00,84.3,60.6,29.52,South,177,0.0,5.0,45,0.00,,,0.00,Wunderground v.1.15,2013-07-04 19:53:00,
2013-07-04 14:58:00,84.7,60.4,29.53,South,176,0.0,5.0,44,0.00,,,0.00,Wunderground v.1.15,2013-07-04 19:58:00,
2013-07-04 15:03:00,85.0,59.3,29.52,South,176,0.0,6.0,42,0.00,,,0.00,Wunderground v.1.15,2013-07-04 20:03:00,
2013-07-04 15:08:00,85.0,60.0,29.52,South,176,6.0,7.0,43,0.00,,,0.00,Wunderground v.1.15,2013-07-04 20:08:00,
2013-07-04 15:13:00,85.2,60.8,29.52,South,175,7.0,7.0,44,0.00,,,0.00,Wunderground v.1.15,2013-07-04 20:13:00,
2013-07-04 15:18:00,85.8,63.8,29.52,South,171,0.0,9.0,48,0.00,,,0.00,Wunderground v.1.15,2013-07-04 20:18:00,
2013-07-04 15:23:00,-999.9,-99.9,29.52,SSE,167,1.0,8.0,255,0.00,,,0.00,Wunderground v.1.15,2013-07-04 20:23:00,
2013-07-04 15:28:00,85.3,60.3,29.52,SSE,167,0.0,8.0,43,0.00,,,0.00,Wunderground v.1.15,2013-07-04 20:28:00,
2013-07-04 15:33:00,84.7,59.7,29.52,SSE,167,0.0,1.0,43,0.00,,,0.00,Wunderground v.1.15,2013-07-04 20:33:00,
2013-07-04 15:38:00,84.8,62.9,29.52,SSE,167,0.0,1.0,48,0.00,,,0.00,Wunderground v.1.15,2013-07-04 20:38:00,
2013-07-04 15:43:00,84.7,59.7,29.52,SSE,167,0.0,0.0,43,0.00,,,0.00,Wunderground v.1.15,2013-07-04 20:43:00,
2013-07-04 15:48:00,84.8,59.8,29.52,SSE,167,0.0,4.0,43,0.00,,,0.00,Wunderground v.1.15,2013-07-04 20:48:00,
2013-07-04 15:53:00,85.0,60.0,29.52,SSE,168,0.0,7.0,43,0.00,,,0.00,Wunderground v.1.15,2013-07-04 20:53:00,
2013-07-04 15:58:00,-999.9,-99.9,29.52,SSE,168,0.0,7.0,255,0.00,,,0.00,Wunderground v.1.15,2013-07-04 20:58:00,
2013-07-04 16:03:00,84.2,61.2,29.52,SSE,168,0.0,1.0,46,0.00,,,0.00,Wunderground v.1.15,2013-07-04 21:03:00,
2013-07-04 16:08:00,84.4,62.0,29.52,SSE,168,0.0,4.0,47,0.00,,,0.00,Wunderground v.1.15,2013-07-04 21:08:00,
2013-07-04 16:13:00,84.4,60.1,29.52,SSE,168,8.0,8.0,44,0.00,,,0.00,Wunderground v.1.15,2013-07-04 21:13:00,
2013-07-04 16:18:00,84.0,62.8,29.52,SSE,168,0.0,8.0,49,0.00,,,0.00,Wunderground v.1.15,2013-07-04 21:18:00,
2013-07-04 16:23:00,83.5,59.9,29.52,SSE,168,0.0,5.0,45,0.00,,,0.00,Wunderground v.1.15,2013-07-04 21:23:00,
2013-07-04 16:28:00,83.3,62.1,29.52,SSE,168,0.0,6.0,49,0.00,,,0.00,Wunderground v.1.15,2013-07-04 21:28:00,
2013-07-04 16:33:00,83.4,62.8,29.51,SSE,168,0.0,6.0,50,0.00,,,0.00,Wunderground v.1.15,2013-07-04 21:33:00,
2013-07-04 16:38:00,83.8,63.2,29.51,SSE,168,0.0,8.0,50,0.00,,,0.00,Wunderground v.1.15,2013-07-04 21:38:00,
2013-07-04 16:43:00,84.2,63.5,29.51,SSE,168,1.0,8.0,50,0.00,,,0.00,Wunderground v.1.15,2013-07-04 21:43:00,
2013-07-04 16:48:00,84.5,63.8,29.51,SSE,168,0.0,8.0,50,0.00,,,0.00,Wunderground v.1.15,2013-07-04 21:48:00,
2013-07-04 16:53:00,84.8,63.5,29.51,SSE,168,0.0,5.0,49,0.00,,,0.00,Wunderground v.1.15,2013-07-04 21:53:00,
2013-07-04 16:58:00,84.9,63.6,29.51,SSE,166,4.0,9.0,49,0.00,,,0.00,Wunderground v.1.15,2013-07-04 21:58:00,
2013-07-04 17:03:00,85.1,62.0,29.51,SE,144,0.0,11.0,46,0.00,,,0.00,Wunderground v.1.15,2013-07-04 22:03:00,
2013-07-04 17:08:00,85.2,64.5,29.51,SE,144,0.0,11.0,50,0.00,,,0.00,Wunderground v.1.15,2013-07-04 22:08:00,
2013-07-04 17:12:00,84.7,62.8,29.51,SE,144,0.0,7.0,48,0.00,,,0.00,Wunderground v.1.15,2013-07-04 22:12:00,
2013-07-04 17:17:00,84.5,65.5,29.50,SE,144,0.0,7.0,53,0.00,,,0.00,Wunderground v.1.15,2013-07-04 22:17:00,
2013-07-04 17:22:00,84.1,65.1,29.51,SE,144,0.0,0.0,53,0.00,,,0.00,Wunderground v.1.15,2013-07-04 22:22:00,
2013-07-04 17:27:00,83.7,65.8,29.50,SE,144,0.0,2.0,55,0.00,,,0.00,Wunderground v.1.15,2013-07-04 22:27:00,
2013-07-04 17:32:00,83.2,64.3,29.50,SE,144,0.0,0.0,53,0.00,,,0.00,Wunderground v.1.15,2013-07-04 22:32:00,
2013-07-04 17:37:00,84.0,66.1,29.50,SE,144,0.0,2.0,55,0.00,,,0.00,Wunderground v.1.15,2013-07-04 22:37:00,
2013-07-04 17:42:00,82.4,64.1,29.50,SE,144,0.0,4.0,54,0.00,,,0.00,Wunderground v.1.15,2013-07-04 22:42:00,
2013-07-04 17:47:00,82.4,66.1,29.50,SE,144,0.0,4.0,58,0.00,,,0.00,Wunderground v.1.15,2013-07-04 22:47:00,
2013-07-04 17:52:00,81.8,64.1,29.49,SE,144,0.0,0.0,55,0.00,,,0.00,Wunderground v.1.15,2013-07-04 22:52:00,
2013-07-04 17:57:00,81.8,65.1,29.49,SE,144,0.0,0.0,57,0.00,,,0.00,Wunderground v.1.15,2013-07-04 22:57:00,
2013-07-04 18:02:00,82.1,66.8,29.49,SE,144,0.0,0.0,60,0.00,,,0.00,Wunderground v.1.15,2013-07-04 23:02:00,
2013-07-04 18:07:00,82.5,66.7,29.49,SE,144,0.0,0.0,59,0.00,,,0.00,Wunderground v.1.15,2013-07-04 23:07:00,
2013-07-04 18:12:00,82.8,67.0,29.49,SE,144,0.0,0.0,59,0.00,,,0.00,Wunderground v.1.15,2013-07-04 23:12:00,
2013-07-04 18:17:00,82.8,68.0,29.49,SE,144,0.0,1.0,61,0.00,,,0.00,Wunderground v.1.15,2013-07-04 23:17:00,
2013-07-04 18:22:00,82.8,68.0,29.49,SE,144,0.0,1.0,61,0.00,,,0.00,Wunderground v.1.15,2013-07-04 23:22:00,
2013-07-04 18:27:00,82.6,66.8,29.49,SE,144,0.0,6.0,59,0.00,,,0.00,Wunderground v.1.15,2013-07-04 23:27:00,
2013-07-04 18:32:00,82.2,66.0,29.49,SE,144,0.0,1.0,58,0.00,,,0.00,Wunderground v.1.15,2013-07-04 23:32:00,
2013-07-04 18:37:00,82.0,66.3,29.49,SE,144,2.0,5.0,59,0.00,,,0.00,Wunderground v.1.15,2013-07-04 23:37:00,
2013-07-04 18:42:00,81.9,65.2,29.49,SE,144,0.0,7.0,57,0.00,,,0.00,Wunderground v.1.15,2013-07-04 23:42:00,
2013-07-04 18:47:00,82.2,65.4,29.49,SE,144,0.0,7.0,57,0.00,,,0.00,Wunderground v.1.15,2013-07-04 23:47:00,
2013-07-04 18:52:00,81.6,64.4,29.49,SE,144,0.0,7.0,56,0.00,,,0.00,Wunderground v.1.15,2013-07-04 23:52:00,
2013-07-04 18:57:00,81.6,64.4,29.50,SE,144,0.0,7.0,56,0.00,,,0.00,Wunderground v.1.15,2013-07-04 23:57:00,
2013-07-04 19:02:00,81.3,65.1,29.50,SE,144,0.0,1.0,58,0.00,,,0.00,Wunderground v.1.15,2013-07-05 00:02:00,
2013-07-04 19:07:00,81.2,64.0,29.50,SE,144,0.0,5.0,56,0.00,,,0.00,Wunderground v.1.15,2013-07-05 00:07:00,
2013-07-04 19:12:00,81.3,64.6,29.50,SE,144,0.0,4.0,57,0.00,,,0.00,Wunderground v.1.15,2013-07-05 00:12:00,
2013-07-04 19:17:00,81.3,64.6,29.50,SE,144,0.0,7.0,57,0.00,,,0.00,Wunderground v.1.15,2013-07-05 00:17:00,
2013-07-04 19:22:00,81.4,63.7,29.50,SE,144,0.0,6.0,55,0.00,,,0.00,Wunderground v.1.15,2013-07-05 00:22:00,
2013-07-04 19:27:00,81.3,63.6,29.50,SE,144,1.0,6.0,55,0.00,,,0.00,Wunderground v.1.15,2013-07-05 00:27:00,
2013-07-04 19:32:00,81.2,63.5,29.50,SE,144,0.0,1.0,55,0.00,,,0.00,Wunderground v.1.15,2013-07-05 00:32:00,
2013-07-04 19:37:00,-999.9,-99.9,29.50,SE,144,2.0,2.0,55,0.00,,,0.00,Wunderground v.1.15,2013-07-05 00:37:00,
2013-07-04 19:42:00,80.8,63.6,29.50,SE,144,0.0,4.0,56,0.00,,,0.00,Wunderground v.1.15,2013-07-05 00:42:00,
2013-07-04 19:47:00,80.9,63.7,29.50,SE,144,0.0,4.0,56,0.00,,,0.00,Wunderground v.1.15,2013-07-05 00:47:00,
2013-07-04 19:52:00,80.3,63.2,29.50,SE,144,0.0,1.0,56,0.00,,,0.00,Wunderground v.1.15,2013-07-05 00:52:00,
2013-07-04 19:57:00,80.0,63.4,29.51,SE,144,0.0,2.0,57,0.00,,,0.00,Wunderground v.1.15,2013-07-05 00:57:00,
2013-07-04 20:02:00,79.7,63.6,29.50,SE,144,0.0,0.0,58,0.00,,,0.00,Wunderground v.1.15,2013-07-05 01:02:00,
2013-07-04 20:07:00,79.4,63.3,29.51,SE,144,0.0,1.0,58,0.00,,,0.00,Wunderground v.1.15,2013-07-05 01:07:00,
2013-07-04 20:12:00,79.1,63.5,29.50,SE,144,0.0,1.0,59,0.00,,,0.00,Wunderground v.1.15,2013-07-05 01:12:00,
2013-07-04 20:17:00,78.8,63.3,29.50,SE,144,0.0,1.0,59,0.00,,,0.00,Wunderground v.1.15,2013-07-05 01:17:00,
2013-07-04 20:22:00,78.4,63.4,29.50,SE,144,0.0,4.0,60,0.00,,,0.00,Wunderground v.1.15,2013-07-05 01:22:00,
2013-07-04 20:27:00,78.2,63.6,29.50,SE,144,0.0,4.0,61,0.00,,,0.00,Wunderground v.1.15,2013-07-05 01:27:00,
2013-07-04 20:32:00,78.3,63.7,29.50,SE,144,0.0,1.0,61,0.00,,,0.00,Wunderground v.1.15,2013-07-05 01:32:00,
2013-07-04 20:37:00,77.6,63.1,29.50,SE,144,0.0,5.0,61,0.00,,,0.00,Wunderground v.1.15,2013-07-05 01:37:00,
2013-07-04 20:42:00,-90.0,-99.9,29.50,SE,144,0.0,1.0,255,0.00,,,0.00,Wunderground v.1.15,2013-07-05 01:42:00,
2013-07-04 20:47:00,77.3,62.3,29.50,SE,144,0.0,5.0,60,0.00,,,0.00,Wunderground v.1.15,2013-07-05 01:47:00,
2013-07-04 20:52:00,76.9,62.4,29.50,SE,144,0.0,4.0,61,0.00,,,0.00,Wunderground v.1.15,2013-07-05 01:52:00,
2013-07-04 20:57:00,76.9,62.4,29.50,SE,144,0.0,7.0,61,0.00,,,0.00,Wunderground v.1.15,2013-07-05 01:57:00,
2013-07-04 21:02:00,76.7,62.2,29.51,SE,144,0.0,1.0,61,0.00,,,0.00,Wunderground v.1.15,2013-07-05 02:02:00,
2013-07-04 21:07:00,76.5,62.0,29.50,SE,144,0.0,5.0,61,0.00,,,0.00,Wunderground v.1.15,2013-07-05 02:07:00,
2013-07-04 21:12:00,76.5,62.0,29.50,SE,144,0.0,0.0,61,0.00,,,0.00,Wunderground v.1.15,2013-07-05 02:12:00,
2013-07-04 21:17:00,76.3,62.3,29.50,SE,144,0.0,8.0,62,0.00,,,0.00,Wunderground v.1.15,2013-07-05 02:17:00,
2013-07-04 21:22:00,76.1,62.1,29.50,SE,144,0.0,5.0,62,0.00,,,0.00,Wunderground v.1.15,2013-07-05 02:22:00,
2013-07-04 21:27:00,76.0,62.0,29.51,SE,144,0.0,6.0,62,0.00,,,0.00,Wunderground v.1.15,2013-07-05 02:27:00,
2013-07-04 21:32:00,75.7,61.8,29.51,SE,144,0.0,7.0,62,0.00,,,0.00,Wunderground v.1.15,2013-07-05 02:32:00,
2013-07-04 21:37:00,75.6,62.1,29.51,SE,144,0.0,7.0,63,0.00,,,0.00,Wunderground v.1.15,2013-07-05 02:37:00,
2013-07-04 21:42:00,75.4,61.9,29.51,SE,144,0.0,1.0,63,0.00,,,0.00,Wunderground v.1.15,2013-07-05 02:42:00,
2013-07-04 21:47:00,75.3,61.8,29.51,SE,144,0.0,1.0,63,0.00,,,0.00,Wunderground v.1.15,2013-07-05 02:47:00,
2013-07-04 21:52:00,75.1,62.1,29.51,SE,144,0.0,1.0,64,0.00,,,0.00,Wunderground v.1.15,2013-07-05 02:52:00,
2013-07-04 21:57:00,-90.0,-95.7,29.52,SE,144,0.0,6.0,64,0.00,,,0.00,Wunderground v.1.15,2013-07-05 02:57:00,
2013-07-04 22:02:00,75.1,61.6,29.52,SE,144,0.0,1.0,63,0.00,,,0.00,Wunderground v.1.15,2013-07-05 03:02:00,
2013-07-04 22:07:00,75.1,61.6,29.52,SE,144,0.0,7.0,63,0.00,,,0.00,Wunderground v.1.15,2013-07-05 03:07:00,
2013-07-04 22:12:00,75.2,62.2,29.52,SE,144,0.0,1.0,64,0.00,,,0.00,Wunderground v.1.15,2013-07-05 03:12:00,
2013-07-04 22:17:00,-90.0,-95.9,29.51,SE,144,0.0,4.0,63,0.00,,,0.00,Wunderground v.1.15,2013-07-05 03:17:00,
2013-07-04 22:22:00,75.1,62.1,29.52,SE,144,0.0,5.0,64,0.00,,,0.00,Wunderground v.1.15,2013-07-05 03:22:00,
2013-07-04 22:27:00,74.9,62.3,29.52,SE,144,5.0,8.0,65,0.00,,,0.00,Wunderground v.1.15,2013-07-05 03:27:00,
2013-07-04 22:32:00,75.0,62.4,29.52,SE,144,1.0,6.0,65,0.00,,,0.00,Wunderground v.1.15,2013-07-05 03:32:00,
2013-07-04 22:37:00,75.3,62.3,29.52,SE,144,1.0,6.0,64,0.00,,,0.00,Wunderground v.1.15,2013-07-05 03:37:00,
2013-07-04 22:42:00,74.9,61.9,29.52,SE,144,0.0,7.0,64,0.00,,,0.00,Wunderground v.1.15,2013-07-05 03:42:00,
2013-07-04 22:47:00,74.7,62.1,29.52,SE,144,0.0,7.0,65,0.00,,,0.00,Wunderground v.1.15,2013-07-05 03:47:00,
2013-07-04 22:52:00,-90.0,-95.5,29.52,SE,144,1.0,5.0,65,0.00,,,0.00,Wunderground v.1.15,2013-07-05 03:52:00,
2013-07-04 22:57:00,74.4,62.3,29.52,SE,144,0.0,6.0,66,0.00,,,0.00,Wunderground v.1.15,2013-07-05 03:57:00,
2013-07-04 23:01:00,74.1,62.0,29.52,SE,144,2.0,2.0,66,0.00,,,0.00,Wunderground v.1.15,2013-07-05 04:01:00,
2013-07-04 23:06:00,-90.0,-95.5,29.52,SE,143,1.0,6.0,65,0.00,,,0.00,Wunderground v.1.15,2013-07-05 04:06:00,
2013-07-04 23:11:00,73.9,61.8,29.52,SE,144,0.0,7.0,66,0.00,,,0.00,Wunderground v.1.15,2013-07-05 04:11:00,
2013-07-04 23:16:00,73.8,61.7,29.52,SE,144,0.0,7.0,66,0.00,,,0.00,Wunderground v.1.15,2013-07-05 04:16:00,
2013-07-04 23:21:00,73.7,61.6,29.52,SE,144,0.0,5.0,66,0.00,,,0.00,Wunderground v.1.15,2013-07-05 04:21:00,
2013-07-04 23:26:00,73.7,61.2,29.52,SE,144,0.0,5.0,65,0.00,,,0.00,Wunderground v.1.15,2013-07-05 04:26:00,
2013-07-04 23:31:00,73.5,61.4,29.52,SE,143,0.0,5.0,66,0.00,,,0.00,Wunderground v.1.15,2013-07-05 04:31:00,
2013-07-04 23:36:00,73.3,61.3,29.52,SE,144,0.0,5.0,66,0.00,,,0.00,Wunderground v.1.15,2013-07-05 04:36:00,
2013-07-04 23:41:00,73.3,61.3,29.52,SE,143,0.0,1.0,66,0.00,,,0.00,Wunderground v.1.15,2013-07-05 04:41:00,
2013-07-04 23:46:00,73.5,60.6,29.52,SE,144,0.0,6.0,64,0.00,,,0.00,Wunderground v.1.15,2013-07-05 04:46:00,
2013-07-04 23:51:00,73.0,61.0,29.52,SE,144,0.0,7.0,66,0.00,,,0.00,Wunderground v.1.15,2013-07-05 04:51:00,
2013-07-04 23:56:00,72.9,61.3,29.52,SE,144,4.0,7.0,67,0.00,,,0.00,Wunderground v.1.15,2013-07-05 04:56:00,